Regional Weather Roundup
Issued by NWS Bismarck, ND

Home | Current Version | Previous Version | Text Only | Print | Product List | Glossary On
Versions: 1 2 3 4 5 6 7 8 9 10 11 12 13 14 15 16 17 18 19 20 21 22 23 24 25 26 27 28 29 30 31 32 33 34 35 36 37 38 39 40 41 42 43 44 45 46 47 48 49 50
000
ASUS43 KBIS 301220
RWRBIS

NWR BROADCAST TEXT
NATIONAL WEATHER SERVICE BISMARCK ND
700 AM CDT THU OCT 30 2014

NOTE: "FAIR" INDICATES FEW OR NO CLOUDS BELOW 12,000 FEET WITH NO
SIGNIFICANT WEATHER AND/OR OBSTRUCTIONS TO VISIBILITY.


CITY           SKY/WX    TMP DP  RH WIND       PRES   REMARKS
WILLISTON      CLOUDY    37  32  82 NW9       30.27R
MINOT          CLOUDY    30  28  92 N12       30.25R
MINOT AFB      CLOUDY    31  30  99 N9        30.25R
BISMARCK       CLEAR     34  32  92 N10       30.18R
DICKINSON      CLOUDY    34  32  92 NW12      30.21R FOG
GARRISON         N/A     31  29  92 N9        30.21R
HETTINGER ARPT CLEAR     33  30  88 NW13      30.20R
JAMESTOWN      CLOUDY    35  34  96 N15       30.10R
BEACH            N/A     32  32 100 N15       30.26R
CARRINGTON     FAIR      30  30 100 N12       30.17R
CROSBY         CLOUDY    36  36 100 N13       30.27R
HARVEY         FAIR      27  27 100 N9        30.21R WCI  17
HAZEN          CLOUDY    32  30  93 CALM      30.24R
LINTON         FAIR      32  32 100 NW8       30.14R
MANDAN         CLOUDY    32  32 100 NW13      30.21R
OAKES            N/A     36  36 100 NW12      30.04R
RUGBY          FAIR      25  25 100 N6        30.22R WCI  18
STANLEY        CLOUDY    32  32 100 NE8       30.24R
TIOGA          CLOUDY    32  32 100 NE7       30.27R
$$

CITY           SKY/WX    TMP DP  RH WIND       PRES   REMARKS
GRAND FORKS    MOCLDY    30  28  92 NW10      30.14R
GRAND FORKS AF CLEAR     29  29  99 N8        30.15R
DEVILS LAKE    MOCLDY    30  23  74 N14       30.17R WCI  20
FARGO          CLOUDY    40  38  93 N8        30.07R FOG
CANDO          CLOUDY    30  28  93 N13       30.21R
CAVALIER       CLOUDY    36  32  87 N12       30.18R
GRAFTON        CLOUDY    32  30  93 N10       30.17R
GWINNER        CLOUDY    43  43 100 NW9       30.05R
LANGDON        CLOUDY    32  28  86 N16       30.16R
ROLLA          CLOUDY    30  30 100 N20G26    30.20R WCI  18
WALHALLA       FAIR      36  32  87 N15G24    30.19R
$$

CITY           SKY/WX    TMP DP  RH WIND       PRES   REMARKS
ABERDEEN       CLEAR     40  37  89 NW10      30.05R
MOBRIDGE       CLEAR     41  36  82 NW18      30.10R
BUFFALO          N/A     38  32  79 NW12      30.15R
RAPID CITY     CLEAR     35  29  78 N9        30.21R
GLASGOW        CLOUDY    34  31  88 N8        30.28R
SIDNEY         CLOUDY    37  32  81 NW7       30.30R
WOLF POINT     CLOUDY    38  32  79 N5        30.30R
GLENDIVE       CLOUDY    34  32  93 N6        30.28R
MILES CITY     CLEAR     31  28  89 NW7       30.25R
BAKER          MOCLDY    31  29  92 NW7       30.24R
$$

CITY           SKY/WX    TMP DP  RH WIND       PRES   REMARKS
BILLINGS       CLEAR     36  26  67 SW10      30.27R
GREAT FALLS    CLEAR     34  29  82 S8        30.23S
REGINA         CLOUDY    32  30  93 NE8       30.32R
ESTEVAN        CLOUDY    34  30  86 N9        30.27R
$$




USA.gov is the U.S. government's official web portal to all federal, state and local government web resources and services.